Zurück zum Katalog

DELTA 1 DEB

AktivSSO
NORAD 7029·DEBRIS·🇺🇸 United States

Gestartet Nov 6, 1973 von Vandenberg Space Force Base

Loading…

Nächste Überflüge (nächste 24 Stunden)

TLE

AktuellSource: Space-Track

Epoche: Sep 14, 2026, 13:27 UTC

1 07029U 73086V   26257.56099646 -.00000046  00000-0  40089-5 0  9996
2 07029 102.3489 275.7986 0012638  79.5536  74.5286 12.37176492386838

Verfolge DELTA 1 DEB in Echtzeit mit AllMySat

Download on the App Store